Change the Weather History Date:

Thursday, November 17, 2011

  Actual Average Record
Temperature  
Mean Temperature 48 °F -  
Max Temperature 61 °F 68 °F 85 °F (1958)
Min Temperature 36 °F 44 °F 26 °F (1970)
Degree Days  
Heating Degree Days 16    
Moisture  
Dew Point 39 °F    
Average Humidity 62    
Maximum Humidity 87    
Minimum Humidity 26    
Precipitation  
Precipitation 0.00 in - - ()
Sea Level Pressure  
Sea Level Pressure 30.16 in    
Wind  
Wind Speed 11 mph (NNW)    
Max Wind Speed 16 mph    
Max Gust Speed 24 mph    
Visibility 10 miles    
Events Rain    
Averages and records for this station are not official NWS values.
T = Trace of Precipitation, MM = Missing Value Source: NWS Daily Summary

Daily Weather History Graph

Daily Weather History Graph

Search for Another Location

Airport or City:

Trip Planner

Search our weather history database for the weather conditions in past years. The results will help you decide how hot, cold, wet, or windy it might be!

Date:

Astronomy

Nov. 17, 2011 Rise Set
Actual Time 6:16 AM CST 4:46 PM CST
Civil Twilight 5:50 AM CST 5:12 PM CST
Nautical Twilight 5:20 AM CST 5:41 PM CST
Astronomical Twilight 4:51 AM CST 6:10 PM CST
Moon 10:58 PM CST (11/17) 11:31 AM CST (11/17)
Length of Visible Light 11h 21m
Length of Day
10h 29m
Waning Gibbous, 59% of the Moon is Illuminated
Nov 17
Waning Gibbous
Nov 18
Last Quarter
Nov 25
New
Dec 2
First Quarter
Dec 10
Full

Hourly Weather History & Observations

Time (CST) Temp. Windchill Dew Point Humidity Pressure Visibility Wind Dir Wind Speed Gust Speed Precip Events Conditions
12:56 AM 61.0 °F - 55.0 °F 81% 29.96 in 10.0 mi NW 12.7 mph 18.4 mph N/A   Overcast
1:56 AM 60.1 °F - 55.0 °F 83% 29.97 in 10.0 mi WNW 9.2 mph - 0.00 in   Partly Cloudy
2:11 AM 59.0 °F - 54.0 °F 83% 30.00 in 10.0 mi NW 8.1 mph 16.1 mph N/A   Mostly Cloudy
2:34 AM 57.9 °F - 53.1 °F 84% 30.01 in 10.0 mi NW 13.8 mph 21.9 mph N/A   Overcast
2:56 AM 57.0 °F - 53.1 °F 87% 30.01 in 10.0 mi NW 13.8 mph 24.2 mph N/A   Overcast
3:29 AM 57.0 °F - 52.0 °F 83% 30.03 in 10.0 mi NW 12.7 mph 23.0 mph N/A   Overcast
3:56 AM 57.0 °F - 52.0 °F 83% 30.04 in 10.0 mi NW 12.7 mph 23.0 mph N/A   Overcast
4:03 AM 55.9 °F - 52.0 °F 87% 30.05 in 10.0 mi NNW 13.8 mph - N/A   Overcast
4:56 AM 53.1 °F - 48.9 °F 86% 30.08 in 10.0 mi NNW 13.8 mph 21.9 mph N/A   Overcast
5:56 AM 52.0 °F - 46.9 °F 83% 30.11 in 10.0 mi NNW 10.4 mph - 0.00 in   Overcast
6:11 AM 52.0 °F - 46.9 °F 83% 30.13 in 10.0 mi NNW 10.4 mph - 0.00 in Rain Light Rain
6:45 AM 50.0 °F - 41.0 °F 71% 30.15 in 10.0 mi NNW 11.5 mph 18.4 mph 0.00 in   Scattered Clouds
6:56 AM 50.0 °F - 39.9 °F 68% 30.15 in 10.0 mi NW 10.4 mph - 0.00 in   Clear
7:56 AM 50.0 °F - 39.9 °F 68% 30.18 in 10.0 mi NNW 16.1 mph 20.7 mph N/A   Clear
8:56 AM 53.1 °F - 39.9 °F 61% 30.20 in 10.0 mi NNW 5.8 mph - N/A   Clear
9:56 AM 55.9 °F - 37.9 °F 51% 30.20 in 10.0 mi NNW 16.1 mph 19.6 mph N/A   Clear
10:56 AM 57.9 °F - 37.0 °F 46% 30.21 in 10.0 mi NW 11.5 mph 17.3 mph N/A   Clear
11:56 AM 59.0 °F - 33.1 °F 38% 30.19 in 10.0 mi NW 13.8 mph 21.9 mph N/A   Clear
12:56 PM 60.1 °F - 28.9 °F 31% 30.18 in 10.0 mi NNW 12.7 mph 20.7 mph N/A   Clear
1:56 PM 61.0 °F - 26.1 °F 26% 30.18 in 10.0 mi North 13.8 mph 19.6 mph N/A   Clear
2:56 PM 60.1 °F - 28.0 °F 30% 30.20 in 10.0 mi NNW 12.7 mph 20.7 mph N/A   Clear
3:56 PM 57.0 °F - 28.0 °F 33% 30.22 in 10.0 mi NNW 15.0 mph 21.9 mph N/A   Clear
4:56 PM 54.0 °F - 28.0 °F 37% 30.24 in 10.0 mi NNW 9.2 mph - N/A   Clear
5:56 PM 51.1 °F - 28.0 °F 41% 30.26 in 10.0 mi NNW 4.6 mph - 0.00 in   Clear
6:56 PM 48.0 °F - 28.0 °F 46% 30.29 in 10.0 mi North 4.6 mph - N/A   Clear
7:56 PM 45.0 °F 42.6 °F 26.1 °F 48% 30.30 in 10.0 mi North 4.6 mph - N/A   Clear
8:56 PM 43.0 °F 40.3 °F 26.1 °F 51% 30.32 in 10.0 mi North 4.6 mph - N/A   Clear
9:56 PM 39.9 °F - 28.0 °F 63% 30.32 in 10.0 mi Calm Calm - N/A   Clear
10:56 PM 36.0 °F 32.1 °F 28.9 °F 76% 30.32 in 10.0 mi North 4.6 mph - N/A   Clear
11:56 PM 39.0 °F 34.8 °F 27.0 °F 62% 30.31 in 10.0 mi North 5.8 mph - N/A   Clear